GFSMA_prec_precacc24_084.txt.gz
Total_Precipitation_Accumulation
0.16 0.16 0.24 0.20 0.01 0.00 0.00 0.00 0.00 0.00 0.00 0.00 0.00 0.00 0.00 0.00 0.00 0.00 0.00 0.00 0.00 0.00 0.00 0.00 0.00 0.00 0.00 0.00 0.00 0.00 0.00 0.00 0.00 0.00 0.00 0.00 0.00 0.00 0.00 0.00 0.00 0.00 0.00
0.20 0.16 0.17 0.12 0.00 0.00 0.00 0.00 0.00 0.00 0.00 0.00 0.00 0.00 0.00 0.00 0.00 0.00 0.00 0.00 0.00 0.00 0.00 0.00 0.00 0.00 0.00 0.00 0.00 0.00 0.00 0.00 0.00 0.00 0.00 0.00 0.00 0.00 0.00 0.00 0.00 0.00 0.00
0.10 0.08 0.13 0.10 0.02 0.00 0.00 0.00 0.00 0.00 0.00 0.00 0.00 0.00 0.00 0.00 0.00 0.00 0.00 0.00 0.00 0.00 0.00 0.00 0.00 0.00 0.00 0.00 0.00 0.00 0.00 0.00 0.00 0.00 0.00 0.00 0.00 0.00 0.00 0.00 0.00 0.00 0.00
0.05 0.07 0.13 0.16 0.09 0.01 0.00 0.00 0.00 0.00 0.00 0.00 0.00 0.00 0.00 0.00 0.00 0.00 0.00 0.00 0.00 0.00 0.00 0.00 0.00 0.00 0.00 0.00 0.00 0.00 0.00 0.00 0.00 0.00 0.00 0.00 0.00 0.00 0.00 0.00 0.00 0.00 0.00
0.12 0.05 0.10 0.13 0.15 0.05 0.00 0.00 0.00 0.00 0.00 0.00 0.00 0.00 0.00 0.00 0.00 0.00 0.00 0.00 0.00 0.00 0.00 0.00 0.00 0.00 0.00 0.00 0.00 0.00 0.00 0.00 0.00 0.00 0.00 0.00 0.00 0.00 0.00 0.00 0.00 0.00 0.00
0.12 0.09 0.12 0.07 0.03 0.03 0.00 0.00 0.00 0.00 0.00 0.00 0.00 0.00 0.00 0.00 0.00 0.00 0.00 0.00 0.00 0.00 0.00 0.00 0.00 0.00 0.00 0.00 0.00 0.00 0.00 0.00 0.00 0.00 0.00 0.00 0.00 0.00 0.00 0.00 0.00 0.00 0.00
0.05 0.07 0.08 0.06 0.03 0.02 0.01 0.01 0.01 0.00 0.00 0.00 0.00 0.00 0.00 0.00 0.00 0.00 0.00 0.00 0.00 0.00 0.00 0.00 0.00 0.00 0.00 0.00 0.00 0.00 0.00 0.00 0.00 0.00 0.00 0.00 0.00 0.00 0.00 0.00 0.00 0.00 0.00
0.05 0.04 0.05 0.12 0.09 0.06 0.02 0.02 0.02 0.02 0.03 0.02 0.01 0.00 0.01 0.01 0.00 0.00 0.00 0.00 0.00 0.00 0.00 0.00 0.00 0.00 0.00 0.00 0.00 0.00 0.00 0.00 0.00 0.00 0.00 0.00 0.00 0.00 0.00 0.00 0.00 0.00 0.00
0.02 0.04 0.13 0.14 0.09 0.06 0.04 0.02 0.01 0.00 0.01 0.03 0.03 0.04 0.12 0.12 0.06 0.01 0.00 0.00 0.00 0.00 0.00 0.00 0.00 0.00 0.00 0.00 0.00 0.00 0.00 0.00 0.00 0.00 0.01 0.02 0.02 0.01 0.01 0.01 0.00 0.01 0.01
0.02 0.02 0.07 0.07 0.07 0.04 0.04 0.06 0.05 0.04 0.07 0.11 0.11 0.11 0.16 0.17 0.18 0.16 0.05 0.01 0.02 0.01 0.00 0.00 0.00 0.00 0.00 0.00 0.00 0.00 0.00 0.00 0.00 0.00 0.00 0.00 0.00 0.01 0.02 0.03 0.05 0.05 0.04
0.01 0.01 0.02 0.02 0.02 0.05 0.08 0.09 0.10 0.18 0.25 0.34 0.31 0.22 0.17 0.21 0.22 0.17 0.15 0.10 0.02 0.01 0.01 0.01 0.00 0.00 0.00 0.00 0.00 0.00 0.00 0.00 0.00 0.00 0.00 0.00 0.00 0.00 0.02 0.02 0.04 0.05 0.07
0.01 0.03 0.01 0.02 0.02 0.05 0.07 0.13 0.28 0.31 0.24 0.36 0.49 0.43 0.24 0.21 0.20 0.17 0.13 0.10 0.14 0.07 0.03 0.02 0.00 0.00 0.00 0.00 0.00 0.00 0.00 0.00 0.00 0.00 0.00 0.00 0.00 0.00 0.03 0.04 0.05 0.06 0.07
0.01 0.07 0.12 0.11 0.09 0.07 0.16 0.24 0.32 0.27 0.32 0.37 0.47 0.47 0.41 0.25 0.19 0.19 0.16 0.14 0.17 0.16 0.11 0.05 0.01 0.00 0.00 0.00 0.00 0.00 0.00 0.00 0.00 0.00 0.00 0.00 0.00 0.01 0.03 0.04 0.03 0.04 0.04
0.07 0.13 0.22 0.30 0.26 0.20 0.20 0.27 0.28 0.23 0.31 0.32 0.34 0.27 0.20 0.14 0.14 0.13 0.12 0.16 0.14 0.11 0.05 0.01 0.00 0.00 0.00 0.00 0.00 0.00 0.00 0.00 0.00 0.00 0.00 0.00 0.00 0.00 0.01 0.02 0.01 0.01 0.01
0.16 0.18 0.23 0.22 0.23 0.17 0.18 0.33 0.42 0.31 0.26 0.24 0.21 0.20 0.16 0.12 0.13 0.12 0.14 0.16 0.15 0.08 0.02 0.00 0.00 0.00 0.00 0.00 0.00 0.00 0.00 0.00 0.00 0.00 0.00 0.00 0.00 0.00 0.00 0.00 0.02 0.02 0.02
0.59 0.33 0.38 0.34 0.22 0.12 0.11 0.13 0.20 0.20 0.17 0.12 0.13 0.12 0.12 0.10 0.14 0.13 0.13 0.10 0.08 0.06 0.05 0.01 0.00 0.00 0.00 0.00 0.00 0.00 0.00 0.00 0.00 0.00 0.00 0.00 0.00 0.00 0.00 0.00 0.01 0.01 0.01
0.87 0.74 0.55 0.53 0.43 0.33 0.24 0.19 0.16 0.14 0.12 0.12 0.11 0.11 0.11 0.12 0.12 0.11 0.11 0.12 0.09 0.07 0.06 0.03 0.02 0.00 0.00 0.00 0.00 0.00 0.00 0.00 0.00 0.00 0.00 0.00 0.00 0.00 0.00 0.00 0.01 0.01 0.01
0.67 0.44 0.28 0.18 0.16 0.17 0.19 0.16 0.12 0.12 0.14 0.16 0.18 0.25 0.25 0.25 0.22 0.19 0.16 0.16 0.15 0.13 0.14 0.11 0.06 0.04 0.02 0.00 0.00 0.00 0.00 0.00 0.00 0.00 0.01 0.01 0.01 0.01 0.01 0.01 0.01 0.01 0.01
0.14 0.06 0.04 0.05 0.05 0.05 0.08 0.16 0.23 0.24 0.25 0.24 0.23 0.26 0.29 0.32 0.29 0.27 0.28 0.26 0.22 0.19 0.17 0.16 0.10 0.04 0.03 0.01 0.00 0.00 0.00 0.00 0.00 0.01 0.01 0.01 0.01 0.00 0.01 0.00 0.00 0.01 0.01
0.18 0.12 0.10 0.10 0.07 0.06 0.06 0.06 0.08 0.08 0.08 0.12 0.17 0.20 0.19 0.19 0.17 0.15 0.13 0.11 0.10 0.12 0.11 0.13 0.14 0.08 0.05 0.03 0.03 0.02 0.02 0.01 0.01 0.01 0.01 0.01 0.01 0.00 0.01 0.02 0.04 0.05 0.06
0.04 0.07 0.09 0.11 0.12 0.10 0.10 0.09 0.07 0.07 0.07 0.08 0.08 0.07 0.05 0.11 0.12 0.09 0.09 0.08 0.10 0.12 0.11 0.11 0.12 0.11 0.09 0.08 0.07 0.06 0.07 0.04 0.02 0.02 0.02 0.02 0.03 0.03 0.03 0.04 0.05 0.05 0.05
0.07 0.06 0.06 0.07 0.06 0.06 0.14 0.10 0.06 0.04 0.04 0.06 0.05 0.05 0.07 0.16 0.11 0.15 0.15 0.14 0.10 0.09 0.10 0.13 0.16 0.19 0.15 0.09 0.06 0.09 0.09 0.11 0.11 0.02 0.02 0.03 0.03 0.03 0.02 0.01 0.01 0.01 0.02
0.12 0.09 0.09 0.07 0.07 0.06 0.12 0.08 0.08 0.04 0.06 0.07 0.07 0.06 0.06 0.08 0.12 0.04 0.08 0.12 0.12 0.16 0.16 0.16 0.19 0.21 0.18 0.17 0.21 0.23 0.20 0.18 0.14 0.04 0.06 0.05 0.01 0.02 0.02 0.04 0.05 0.04 0.04
0.14 0.11 0.10 0.11 0.10 0.11 0.14 0.09 0.11 0.04 0.04 0.05 0.06 0.06 0.08 0.08 0.11 0.11 0.08 0.12 0.15 0.18 0.21 0.24 0.26 0.26 0.25 0.23 0.19 0.19 0.16 0.12 0.07 0.03 0.03 0.04 0.00 0.01 0.01 0.02 0.03 0.06 0.06
0.09 0.08 0.11 0.10 0.09 0.13 0.19 0.13 0.11 0.05 0.08 0.09 0.10 0.15 0.19 0.17 0.36 0.33 0.23 0.22 0.25 0.24 0.27 0.24 0.19 0.17 0.16 0.14 0.12 0.13 0.12 0.10 0.06 0.01 0.01 0.03 0.02 0.02 0.04 0.06 0.07 0.07 0.04
0.07 0.06 0.07 0.08 0.16 0.11 0.23 0.16 0.13 0.08 0.11 0.13 0.14 0.18 0.33 0.21 0.36 0.22 0.14 0.11 0.16 0.19 0.19 0.20 0.18 0.14 0.11 0.09 0.08 0.08 0.08 0.17 0.12 0.09 0.02 0.07 0.05 0.09 0.13 0.05 0.03 0.00 0.00

GFSMA_prec_precacc24_087.txt.gz
Total_Precipitation_Accumulation
0.16 0.18 0.29 0.30 0.06 0.00 0.00 0.00 0.00 0.00 0.00 0.00 0.00 0.00 0.00 0.00 0.00 0.00 0.00 0.00 0.00 0.00 0.00 0.00 0.00 0.00 0.00 0.00 0.00 0.00 0.00 0.00 0.00 0.00 0.00 0.00 0.00 0.00 0.00 0.00 0.00 0.00 0.00
0.20 0.17 0.22 0.18 0.04 0.00 0.00 0.00 0.00 0.00 0.00 0.00 0.00 0.00 0.00 0.00 0.00 0.00 0.00 0.00 0.00 0.00 0.00 0.00 0.00 0.00 0.00 0.00 0.00 0.00 0.00 0.00 0.00 0.00 0.00 0.00 0.00 0.00 0.00 0.00 0.00 0.00 0.00
0.10 0.09 0.20 0.14 0.03 0.00 0.00 0.00 0.00 0.00 0.00 0.00 0.00 0.00 0.00 0.00 0.00 0.00 0.00 0.00 0.00 0.00 0.00 0.00 0.00 0.00 0.00 0.00 0.00 0.00 0.00 0.00 0.00 0.00 0.00 0.00 0.00 0.00 0.00 0.00 0.00 0.00 0.00
0.05 0.07 0.17 0.20 0.09 0.01 0.00 0.00 0.00 0.00 0.00 0.00 0.00 0.00 0.00 0.00 0.00 0.00 0.00 0.00 0.00 0.00 0.00 0.00 0.00 0.00 0.00 0.00 0.00 0.00 0.00 0.00 0.00 0.00 0.00 0.00 0.00 0.00 0.00 0.00 0.00 0.00 0.00
0.13 0.07 0.15 0.16 0.18 0.07 0.01 0.00 0.00 0.00 0.00 0.00 0.00 0.00 0.00 0.00 0.00 0.00 0.00 0.00 0.00 0.00 0.00 0.00 0.00 0.00 0.00 0.00 0.00 0.00 0.00 0.00 0.00 0.00 0.00 0.00 0.00 0.00 0.00 0.00 0.00 0.00 0.00
0.19 0.19 0.16 0.10 0.08 0.05 0.01 0.00 0.00 0.00 0.00 0.00 0.00 0.00 0.00 0.00 0.00 0.00 0.00 0.00 0.00 0.00 0.00 0.00 0.00 0.00 0.00 0.00 0.00 0.00 0.00 0.00 0.00 0.00 0.00 0.00 0.00 0.00 0.00 0.00 0.00 0.00 0.00
0.15 0.26 0.27 0.17 0.10 0.02 0.01 0.01 0.01 0.00 0.00 0.00 0.00 0.00 0.00 0.00 0.00 0.00 0.00 0.00 0.00 0.00 0.00 0.00 0.00 0.00 0.00 0.00 0.00 0.00 0.00 0.00 0.00 0.00 0.00 0.00 0.00 0.00 0.00 0.00 0.00 0.00 0.00
0.25 0.19 0.12 0.17 0.11 0.02 0.01 0.01 0.01 0.02 0.03 0.02 0.01 0.00 0.01 0.01 0.00 0.00 0.00 0.00 0.00 0.00 0.00 0.00 0.00 0.00 0.00 0.00 0.00 0.00 0.00 0.00 0.01 0.01 0.00 0.00 0.00 0.00 0.00 0.00 0.00 0.00 0.00
0.08 0.12 0.09 0.08 0.04 0.02 0.02 0.02 0.01 0.00 0.01 0.02 0.03 0.04 0.12 0.12 0.06 0.01 0.00 0.00 0.00 0.00 0.00 0.00 0.00 0.00 0.00 0.00 0.00 0.00 0.00 0.00 0.00 0.02 0.03 0.03 0.02 0.01 0.01 0.01 0.00 0.01 0.01
0.02 0.01 0.01 0.02 0.03 0.03 0.03 0.03 0.04 0.03 0.04 0.05 0.06 0.10 0.15 0.17 0.18 0.16 0.05 0.01 0.02 0.01 0.00 0.00 0.00 0.00 0.00 0.00 0.00 0.00 0.00 0.00 0.00 0.00 0.01 0.01 0.01 0.02 0.03 0.04 0.05 0.06 0.06
0.01 0.01 0.02 0.02 0.01 0.04 0.08 0.09 0.08 0.08 0.09 0.15 0.13 0.12 0.08 0.15 0.23 0.18 0.15 0.10 0.02 0.01 0.01 0.01 0.00 0.00 0.00 0.00 0.00 0.00 0.00 0.00 0.00 0.00 0.00 0.00 0.00 0.01 0.02 0.03 0.04 0.06 0.07
0.00 0.00 0.00 0.02 0.02 0.04 0.08 0.12 0.21 0.14 0.12 0.23 0.27 0.23 0.13 0.14 0.20 0.19 0.13 0.10 0.14 0.07 0.03 0.02 0.00 0.00 0.00 0.00 0.00 0.00 0.00 0.00 0.00 0.00 0.00 0.00 0.00 0.01 0.04 0.04 0.05 0.06 0.07
0.00 0.01 0.04 0.08 0.09 0.07 0.16 0.24 0.31 0.24 0.28 0.32 0.40 0.35 0.34 0.23 0.18 0.18 0.15 0.14 0.17 0.16 0.11 0.05 0.01 0.00 0.00 0.00 0.00 0.00 0.00 0.00 0.00 0.00 0.00 0.00 0.00 0.01 0.03 0.04 0.03 0.04 0.04
0.00 0.00 0.05 0.16 0.21 0.19 0.20 0.27 0.29 0.24 0.31 0.26 0.29 0.24 0.18 0.12 0.11 0.12 0.11 0.16 0.15 0.11 0.05 0.01 0.00 0.00 0.00 0.00 0.00 0.00 0.00 0.00 0.00 0.00 0.00 0.00 0.00 0.00 0.01 0.02 0.01 0.01 0.01
0.11 0.07 0.06 0.12 0.20 0.16 0.18 0.33 0.41 0.27 0.20 0.21 0.20 0.19 0.15 0.11 0.12 0.11 0.14 0.17 0.17 0.08 0.02 0.00 0.00 0.00 0.00 0.00 0.00 0.00 0.00 0.00 0.00 0.00 0.00 0.00 0.00 0.00 0.00 0.00 0.02 0.02 0.02
0.36 0.25 0.31 0.32 0.21 0.12 0.10 0.10 0.12 0.13 0.14 0.12 0.14 0.12 0.12 0.10 0.15 0.15 0.15 0.13 0.12 0.07 0.06 0.01 0.00 0.00 0.00 0.00 0.00 0.00 0.00 0.00 0.00 0.00 0.00 0.00 0.00 0.00 0.00 0.00 0.01 0.01 0.01
0.77 0.69 0.54 0.53 0.42 0.32 0.23 0.16 0.12 0.11 0.11 0.11 0.11 0.12 0.11 0.12 0.13 0.12 0.13 0.15 0.12 0.09 0.07 0.03 0.02 0.00 0.00 0.00 0.00 0.00 0.00 0.00 0.00 0.00 0.00 0.00 0.00 0.00 0.00 0.00 0.01 0.01 0.01
0.59 0.41 0.28 0.17 0.15 0.16 0.19 0.16 0.12 0.11 0.13 0.15 0.18 0.25 0.25 0.26 0.23 0.19 0.17 0.17 0.16 0.15 0.16 0.12 0.06 0.04 0.03 0.02 0.01 0.00 0.00 0.00 0.00 0.00 0.01 0.01 0.01 0.01 0.01 0.01 0.01 0.01 0.01
0.13 0.06 0.03 0.04 0.05 0.05 0.07 0.13 0.19 0.22 0.25 0.23 0.23 0.26 0.29 0.32 0.29 0.27 0.29 0.28 0.23 0.21 0.19 0.18 0.11 0.05 0.04 0.02 0.01 0.00 0.00 0.00 0.00 0.01 0.01 0.01 0.01 0.00 0.01 0.00 0.00 0.01 0.01
0.17 0.12 0.10 0.10 0.06 0.04 0.04 0.05 0.07 0.07 0.08 0.12 0.17 0.20 0.19 0.19 0.17 0.15 0.13 0.12 0.14 0.16 0.17 0.19 0.17 0.10 0.06 0.04 0.03 0.02 0.01 0.01 0.01 0.01 0.02 0.02 0.02 0.01 0.01 0.02 0.04 0.05 0.06
0.03 0.07 0.09 0.11 0.11 0.10 0.10 0.09 0.07 0.07 0.07 0.08 0.08 0.07 0.05 0.11 0.12 0.09 0.10 0.10 0.13 0.16 0.16 0.16 0.17 0.16 0.12 0.11 0.10 0.08 0.09 0.07 0.05 0.04 0.05 0.06 0.06 0.04 0.03 0.04 0.05 0.05 0.05
0.07 0.06 0.06 0.07 0.06 0.06 0.14 0.10 0.06 0.04 0.04 0.06 0.05 0.05 0.07 0.16 0.11 0.15 0.15 0.16 0.14 0.12 0.12 0.16 0.19 0.22 0.19 0.15 0.15 0.17 0.15 0.18 0.19 0.15 0.16 0.14 0.09 0.06 0.03 0.02 0.01 0.01 0.02
0.12 0.09 0.09 0.07 0.07 0.06 0.12 0.08 0.08 0.04 0.06 0.07 0.07 0.06 0.06 0.08 0.12 0.04 0.09 0.16 0.17 0.21 0.20 0.20 0.23 0.24 0.25 0.24 0.28 0.36 0.37 0.32 0.27 0.19 0.18 0.13 0.07 0.06 0.04 0.04 0.05 0.04 0.04
0.14 0.11 0.11 0.12 0.10 0.11 0.14 0.09 0.11 0.04 0.04 0.06 0.06 0.06 0.08 0.09 0.11 0.11 0.10 0.15 0.17 0.23 0.29 0.32 0.35 0.38 0.37 0.35 0.32 0.31 0.28 0.26 0.22 0.18 0.15 0.13 0.05 0.04 0.02 0.02 0.03 0.06 0.06
0.09 0.08 0.11 0.10 0.09 0.13 0.19 0.13 0.11 0.05 0.08 0.10 0.10 0.15 0.19 0.17 0.37 0.36 0.24 0.23 0.28 0.32 0.45 0.43 0.37 0.38 0.35 0.29 0.22 0.19 0.20 0.21 0.21 0.15 0.12 0.11 0.05 0.04 0.05 0.06 0.07 0.07 0.04
0.07 0.06 0.08 0.08 0.16 0.12 0.23 0.17 0.14 0.08 0.11 0.15 0.15 0.19 0.37 0.23 0.40 0.25 0.15 0.11 0.18 0.26 0.26 0.29 0.29 0.28 0.26 0.24 0.22 0.19 0.19 0.23 0.17 0.13 0.06 0.10 0.06 0.10 0.13 0.05 0.03 0.00 0.00

GFSMA_prec_precacc24_090.txt.gz
Total_Precipitation_Accumulation
0.21 0.21 0.29 0.30 0.06 0.00 0.00 0.00 0.00 0.00 0.00 0.00 0.00 0.00 0.00 0.00 0.00 0.00 0.00 0.00 0.00 0.00 0.00 0.00 0.00 0.00 0.00 0.00 0.00 0.00 0.00 0.00 0.00 0.00 0.00 0.00 0.00 0.00 0.00 0.00 0.00 0.00 0.00
0.20 0.18 0.22 0.18 0.04 0.00 0.00 0.00 0.00 0.00 0.00 0.00 0.00 0.00 0.00 0.00 0.00 0.00 0.00 0.00 0.00 0.00 0.00 0.00 0.00 0.00 0.00 0.00 0.00 0.00 0.00 0.00 0.00 0.00 0.00 0.00 0.00 0.00 0.00 0.00 0.00 0.00 0.00
0.11 0.09 0.20 0.14 0.03 0.00 0.00 0.00 0.00 0.00 0.00 0.00 0.00 0.00 0.00 0.00 0.00 0.00 0.00 0.00 0.00 0.00 0.00 0.00 0.00 0.00 0.00 0.00 0.00 0.00 0.00 0.00 0.00 0.00 0.00 0.00 0.00 0.00 0.00 0.00 0.00 0.00 0.00
0.07 0.09 0.18 0.21 0.09 0.01 0.00 0.00 0.00 0.00 0.00 0.00 0.00 0.00 0.00 0.00 0.00 0.00 0.00 0.00 0.00 0.00 0.00 0.00 0.00 0.00 0.00 0.00 0.00 0.00 0.00 0.00 0.00 0.00 0.00 0.00 0.00 0.00 0.00 0.00 0.00 0.00 0.00
0.15 0.09 0.19 0.18 0.19 0.07 0.01 0.00 0.00 0.00 0.00 0.00 0.00 0.00 0.00 0.00 0.00 0.00 0.00 0.00 0.00 0.00 0.00 0.00 0.00 0.00 0.00 0.00 0.00 0.00 0.00 0.00 0.00 0.00 0.00 0.00 0.00 0.00 0.00 0.00 0.00 0.00 0.00
0.26 0.26 0.22 0.13 0.09 0.05 0.01 0.00 0.00 0.00 0.00 0.00 0.00 0.00 0.00 0.00 0.00 0.00 0.00 0.00 0.00 0.00 0.00 0.00 0.00 0.00 0.00 0.00 0.00 0.00 0.00 0.00 0.00 0.00 0.00 0.00 0.00 0.00 0.00 0.00 0.00 0.00 0.00
0.23 0.37 0.40 0.27 0.11 0.02 0.01 0.01 0.01 0.00 0.00 0.00 0.00 0.00 0.00 0.00 0.00 0.00 0.00 0.00 0.00 0.00 0.00 0.00 0.00 0.00 0.00 0.00 0.00 0.00 0.00 0.00 0.00 0.00 0.00 0.00 0.00 0.00 0.00 0.00 0.00 0.00 0.00
0.32 0.27 0.20 0.27 0.18 0.03 0.01 0.00 0.01 0.02 0.03 0.02 0.01 0.00 0.01 0.01 0.00 0.00 0.00 0.00 0.00 0.00 0.00 0.00 0.00 0.00 0.00 0.00 0.00 0.00 0.00 0.00 0.01 0.01 0.00 0.00 0.00 0.00 0.00 0.00 0.00 0.00 0.00
0.14 0.22 0.23 0.20 0.08 0.03 0.02 0.01 0.01 0.00 0.01 0.02 0.02 0.03 0.11 0.11 0.06 0.01 0.00 0.00 0.00 0.00 0.00 0.00 0.00 0.00 0.00 0.00 0.00 0.00 0.00 0.00 0.00 0.02 0.03 0.03 0.02 0.01 0.01 0.01 0.00 0.01 0.01
0.14 0.17 0.20 0.23 0.14 0.06 0.03 0.02 0.03 0.03 0.03 0.04 0.02 0.03 0.11 0.16 0.16 0.14 0.04 0.01 0.02 0.01 0.00 0.00 0.00 0.00 0.00 0.00 0.00 0.00 0.00 0.00 0.00 0.00 0.01 0.03 0.03 0.02 0.03 0.04 0.05 0.06 0.06
0.07 0.12 0.16 0.17 0.13 0.08 0.05 0.06 0.06 0.07 0.08 0.12 0.06 0.05 0.04 0.10 0.14 0.08 0.10 0.09 0.02 0.01 0.01 0.01 0.00 0.00 0.00 0.00 0.00 0.00 0.00 0.00 0.00 0.00 0.00 0.01 0.02 0.04 0.04 0.03 0.05 0.06 0.08
0.02 0.02 0.03 0.03 0.04 0.04 0.07 0.11 0.19 0.12 0.10 0.21 0.24 0.20 0.09 0.10 0.13 0.11 0.09 0.09 0.14 0.07 0.03 0.02 0.00 0.00 0.00 0.00 0.00 0.00 0.00 0.00 0.00 0.00 0.00 0.00 0.00 0.01 0.05 0.06 0.06 0.07 0.07
0.00 0.00 0.00 0.01 0.03 0.04 0.10 0.23 0.30 0.23 0.26 0.30 0.35 0.25 0.22 0.18 0.16 0.17 0.14 0.14 0.17 0.16 0.11 0.05 0.01 0.00 0.00 0.00 0.00 0.00 0.00 0.00 0.00 0.00 0.00 0.00 0.00 0.02 0.03 0.04 0.04 0.04 0.04
0.00 0.00 0.00 0.02 0.04 0.10 0.16 0.26 0.29 0.23 0.29 0.24 0.21 0.17 0.16 0.12 0.11 0.12 0.11 0.16 0.15 0.11 0.05 0.01 0.00 0.00 0.00 0.00 0.00 0.00 0.00 0.00 0.00 0.00 0.00 0.00 0.00 0.00 0.01 0.02 0.01 0.01 0.01
0.04 0.02 0.01 0.01 0.02 0.08 0.17 0.33 0.41 0.27 0.16 0.11 0.12 0.16 0.15 0.11 0.12 0.12 0.14 0.17 0.18 0.09 0.02 0.00 0.01 0.00 0.00 0.00 0.00 0.00 0.00 0.00 0.00 0.00 0.00 0.00 0.00 0.00 0.00 0.00 0.02 0.02 0.02
0.10 0.09 0.16 0.14 0.10 0.09 0.10 0.10 0.12 0.12 0.12 0.11 0.14 0.13 0.12 0.10 0.15 0.14 0.15 0.13 0.13 0.09 0.07 0.01 0.00 0.00 0.00 0.00 0.00 0.00 0.00 0.00 0.00 0.00 0.01 0.02 0.03 0.03 0.01 0.00 0.01 0.01 0.01
0.62 0.66 0.47 0.43 0.38 0.31 0.22 0.15 0.12 0.11 0.11 0.11 0.11 0.12 0.10 0.11 0.13 0.12 0.13 0.15 0.12 0.10 0.10 0.03 0.02 0.00 0.00 0.00 0.00 0.00 0.00 0.00 0.01 0.01 0.01 0.01 0.02 0.02 0.00 0.00 0.01 0.01 0.01
0.49 0.34 0.17 0.13 0.13 0.16 0.19 0.16 0.12 0.10 0.12 0.14 0.16 0.23 0.24 0.25 0.23 0.19 0.17 0.17 0.16 0.15 0.16 0.12 0.06 0.04 0.03 0.02 0.01 0.00 0.00 0.01 0.00 0.01 0.01 0.00 0.00 0.00 0.01 0.01 0.01 0.01 0.01
0.08 0.03 0.02 0.03 0.04 0.04 0.06 0.13 0.18 0.20 0.22 0.21 0.22 0.26 0.29 0.32 0.29 0.27 0.29 0.28 0.23 0.21 0.19 0.18 0.11 0.05 0.04 0.02 0.01 0.00 0.00 0.00 0.00 0.00 0.00 0.00 0.00 0.00 0.01 0.01 0.01 0.01 0.01
0.15 0.10 0.08 0.08 0.06 0.03 0.03 0.04 0.06 0.07 0.08 0.12 0.17 0.20 0.19 0.19 0.17 0.15 0.13 0.12 0.14 0.16 0.17 0.19 0.18 0.10 0.06 0.04 0.03 0.03 0.02 0.01 0.01 0.00 0.00 0.01 0.02 0.02 0.03 0.05 0.07 0.07 0.08
0.02 0.06 0.08 0.11 0.10 0.09 0.09 0.08 0.07 0.07 0.07 0.08 0.08 0.07 0.05 0.11 0.12 0.09 0.10 0.10 0.13 0.16 0.16 0.16 0.17 0.16 0.12 0.11 0.10 0.09 0.09 0.07 0.05 0.04 0.04 0.04 0.07 0.09 0.10 0.12 0.13 0.13 0.09
0.07 0.06 0.05 0.07 0.07 0.06 0.13 0.09 0.06 0.04 0.04 0.06 0.05 0.05 0.07 0.16 0.11 0.15 0.15 0.16 0.14 0.13 0.13 0.16 0.20 0.22 0.19 0.15 0.15 0.17 0.15 0.18 0.23 0.21 0.20 0.18 0.14 0.13 0.12 0.13 0.11 0.08 0.07
0.12 0.08 0.09 0.07 0.07 0.07 0.13 0.08 0.08 0.04 0.06 0.07 0.07 0.06 0.06 0.08 0.12 0.04 0.09 0.16 0.17 0.22 0.21 0.21 0.24 0.25 0.26 0.25 0.29 0.37 0.40 0.38 0.35 0.29 0.24 0.22 0.17 0.14 0.11 0.15 0.17 0.17 0.12
0.15 0.12 0.11 0.12 0.10 0.11 0.15 0.10 0.11 0.04 0.04 0.06 0.06 0.06 0.08 0.09 0.11 0.11 0.10 0.16 0.19 0.25 0.31 0.35 0.40 0.45 0.44 0.43 0.41 0.40 0.41 0.43 0.41 0.35 0.27 0.21 0.17 0.17 0.17 0.16 0.13 0.12 0.10
0.13 0.11 0.14 0.12 0.10 0.13 0.20 0.15 0.12 0.06 0.09 0.10 0.10 0.15 0.19 0.17 0.38 0.36 0.25 0.24 0.32 0.38 0.54 0.55 0.49 0.53 0.53 0.44 0.32 0.28 0.31 0.31 0.33 0.33 0.30 0.22 0.16 0.15 0.14 0.14 0.14 0.13 0.07
0.14 0.14 0.13 0.10 0.18 0.14 0.26 0.19 0.15 0.09 0.12 0.16 0.16 0.19 0.38 0.25 0.41 0.27 0.16 0.12 0.19 0.28 0.29 0.34 0.35 0.36 0.35 0.33 0.34 0.30 0.28 0.31 0.26 0.22 0.12 0.10 0.08 0.12 0.16 0.07 0.05 0.02 0.02

GFSMA_prec_precacc24_096.txt.gz
Total_Precipitation_Accumulation
0.54 0.87 0.61 0.52 0.37 0.78 0.26 0.05 0.01 0.00 0.00 0.00 0.00 0.00 0.00 0.00 0.00 0.00 0.00 0.00 0.01 0.02 0.01 0.01 0.01 0.01 0.01 0.01 0.00 0.00 0.00 0.00 0.00 0.00 0.00 0.00 0.00 0.00 0.00 0.00 0.00 0.00 0.00
0.49 0.85 0.66 0.40 0.23 0.48 0.25 0.07 0.01 0.00 0.00 0.00 0.00 0.00 0.00 0.00 0.00 0.00 0.00 0.00 0.00 0.01 0.01 0.01 0.01 0.01 0.00 0.00 0.00 0.00 0.00 0.00 0.00 0.00 0.00 0.00 0.00 0.00 0.00 0.00 0.00 0.00 0.00
0.19 0.40 0.54 0.29 0.17 0.19 0.18 0.06 0.01 0.00 0.00 0.00 0.00 0.00 0.00 0.00 0.00 0.00 0.00 0.00 0.00 0.00 0.01 0.01 0.01 0.00 0.00 0.00 0.00 0.00 0.00 0.00 0.00 0.00 0.00 0.00 0.00 0.00 0.00 0.00 0.00 0.00 0.00
0.07 0.12 0.29 0.34 0.19 0.11 0.07 0.02 0.00 0.00 0.00 0.00 0.00 0.00 0.00 0.00 0.00 0.00 0.00 0.00 0.00 0.00 0.00 0.00 0.00 0.00 0.00 0.00 0.00 0.00 0.00 0.00 0.00 0.00 0.00 0.00 0.00 0.00 0.00 0.00 0.00 0.00 0.00
0.17 0.11 0.22 0.25 0.24 0.10 0.02 0.01 0.00 0.00 0.00 0.00 0.00 0.00 0.00 0.00 0.00 0.00 0.00 0.00 0.00 0.00 0.00 0.00 0.00 0.00 0.00 0.00 0.00 0.00 0.00 0.00 0.00 0.00 0.00 0.00 0.00 0.00 0.00 0.00 0.00 0.00 0.00
0.32 0.30 0.29 0.24 0.10 0.06 0.01 0.00 0.00 0.00 0.00 0.00 0.00 0.00 0.00 0.00 0.00 0.00 0.00 0.00 0.00 0.00 0.00 0.00 0.00 0.00 0.00 0.00 0.00 0.00 0.00 0.00 0.00 0.00 0.00 0.00 0.00 0.00 0.00 0.00 0.00 0.00 0.00
0.36 0.51 0.47 0.47 0.36 0.05 0.02 0.01 0.01 0.00 0.00 0.00 0.00 0.00 0.00 0.00 0.00 0.00 0.00 0.00 0.00 0.00 0.00 0.00 0.00 0.00 0.00 0.00 0.00 0.00 0.00 0.00 0.00 0.00 0.00 0.00 0.00 0.00 0.00 0.00 0.00 0.00 0.00
0.62 0.46 0.42 0.44 0.53 0.22 0.05 0.00 0.01 0.02 0.03 0.02 0.01 0.00 0.01 0.01 0.00 0.00 0.00 0.00 0.00 0.00 0.00 0.00 0.00 0.00 0.00 0.00 0.00 0.00 0.00 0.00 0.01 0.01 0.00 0.00 0.00 0.00 0.00 0.00 0.00 0.00 0.00
0.27 0.52 0.38 0.38 0.42 0.24 0.11 0.04 0.01 0.00 0.01 0.02 0.02 0.03 0.11 0.11 0.06 0.01 0.00 0.00 0.00 0.00 0.00 0.00 0.00 0.00 0.00 0.00 0.00 0.00 0.00 0.00 0.00 0.02 0.03 0.03 0.02 0.01 0.01 0.01 0.00 0.01 0.01
0.15 0.28 0.47 0.37 0.33 0.25 0.14 0.05 0.04 0.02 0.02 0.01 0.01 0.02 0.10 0.14 0.14 0.12 0.04 0.00 0.01 0.01 0.00 0.00 0.00 0.00 0.00 0.00 0.00 0.00 0.00 0.00 0.00 0.00 0.02 0.05 0.04 0.02 0.03 0.04 0.05 0.06 0.06
0.09 0.17 0.29 0.41 0.40 0.34 0.27 0.13 0.07 0.06 0.05 0.10 0.04 0.02 0.01 0.09 0.12 0.04 0.05 0.07 0.02 0.00 0.01 0.01 0.00 0.00 0.00 0.00 0.00 0.00 0.00 0.00 0.00 0.00 0.00 0.01 0.04 0.06 0.05 0.04 0.05 0.07 0.08
0.04 0.06 0.17 0.22 0.35 0.42 0.38 0.29 0.19 0.12 0.09 0.20 0.23 0.19 0.05 0.03 0.07 0.05 0.03 0.07 0.13 0.06 0.03 0.02 0.00 0.00 0.00 0.00 0.00 0.01 0.01 0.01 0.00 0.00 0.00 0.00 0.00 0.02 0.05 0.07 0.08 0.09 0.10
0.01 0.03 0.03 0.04 0.11 0.20 0.46 0.45 0.44 0.29 0.22 0.24 0.29 0.21 0.18 0.11 0.11 0.13 0.11 0.12 0.16 0.16 0.11 0.05 0.01 0.00 0.00 0.00 0.00 0.00 0.01 0.00 0.00 0.00 0.00 0.00 0.00 0.00 0.01 0.02 0.04 0.06 0.08
0.00 0.00 0.00 0.01 0.02 0.05 0.10 0.23 0.26 0.20 0.23 0.17 0.18 0.13 0.09 0.06 0.07 0.09 0.10 0.15 0.15 0.11 0.05 0.01 0.00 0.00 0.00 0.00 0.00 0.00 0.00 0.00 0.00 0.00 0.00 0.00 0.00 0.00 0.00 0.00 0.00 0.01 0.01
0.00 0.00 0.00 0.01 0.00 0.01 0.02 0.06 0.14 0.09 0.09 0.11 0.10 0.12 0.10 0.08 0.11 0.12 0.16 0.18 0.20 0.10 0.03 0.00 0.01 0.00 0.00 0.01 0.00 0.00 0.00 0.00 0.00 0.00 0.00 0.00 0.00 0.00 0.00 0.00 0.00 0.01 0.01
0.00 0.00 0.00 0.00 0.00 0.00 0.01 0.03 0.05 0.07 0.10 0.11 0.13 0.12 0.11 0.10 0.15 0.15 0.15 0.14 0.15 0.12 0.09 0.01 0.00 0.01 0.02 0.01 0.00 0.00 0.00 0.01 0.00 0.00 0.01 0.02 0.03 0.04 0.05 0.05 0.04 0.04 0.03
0.00 0.00 0.00 0.00 0.04 0.08 0.09 0.08 0.07 0.07 0.09 0.09 0.10 0.11 0.10 0.11 0.13 0.12 0.13 0.15 0.13 0.12 0.12 0.03 0.02 0.00 0.00 0.01 0.00 0.00 0.01 0.01 0.01 0.02 0.01 0.01 0.02 0.03 0.04 0.04 0.04 0.03 0.03
0.00 0.00 0.00 0.01 0.03 0.05 0.09 0.10 0.08 0.07 0.09 0.12 0.16 0.22 0.23 0.24 0.22 0.18 0.16 0.17 0.16 0.16 0.17 0.12 0.06 0.04 0.03 0.02 0.01 0.00 0.00 0.01 0.00 0.01 0.01 0.00 0.00 0.00 0.00 0.01 0.01 0.02 0.02
0.00 0.00 0.00 0.00 0.00 0.00 0.02 0.09 0.13 0.14 0.17 0.17 0.20 0.23 0.26 0.30 0.28 0.26 0.28 0.27 0.23 0.21 0.19 0.18 0.11 0.05 0.04 0.02 0.01 0.00 0.00 0.00 0.00 0.00 0.00 0.00 0.00 0.00 0.00 0.00 0.00 0.01 0.01
0.00 0.00 0.00 0.00 0.01 0.01 0.00 0.00 0.02 0.02 0.04 0.07 0.14 0.19 0.19 0.18 0.16 0.14 0.13 0.12 0.13 0.16 0.18 0.20 0.19 0.10 0.06 0.04 0.03 0.03 0.02 0.01 0.01 0.00 0.00 0.01 0.02 0.03 0.03 0.04 0.05 0.05 0.03
0.00 0.00 0.00 0.01 0.03 0.05 0.05 0.05 0.04 0.03 0.02 0.02 0.04 0.05 0.05 0.10 0.11 0.09 0.09 0.10 0.13 0.16 0.16 0.16 0.17 0.16 0.12 0.11 0.10 0.09 0.09 0.07 0.05 0.04 0.04 0.04 0.06 0.09 0.12 0.15 0.15 0.16 0.14
0.01 0.01 0.01 0.01 0.02 0.02 0.03 0.02 0.02 0.01 0.02 0.03 0.04 0.04 0.07 0.14 0.11 0.14 0.15 0.16 0.14 0.13 0.13 0.16 0.20 0.22 0.19 0.15 0.15 0.17 0.15 0.18 0.22 0.21 0.20 0.18 0.13 0.14 0.15 0.19 0.25 0.26 0.22
0.05 0.04 0.05 0.03 0.01 0.02 0.05 0.04 0.03 0.02 0.04 0.05 0.05 0.05 0.05 0.07 0.11 0.04 0.09 0.16 0.17 0.22 0.21 0.21 0.24 0.25 0.26 0.25 0.29 0.38 0.40 0.39 0.38 0.35 0.31 0.27 0.22 0.19 0.18 0.21 0.31 0.33 0.31
0.11 0.10 0.13 0.18 0.14 0.13 0.13 0.08 0.10 0.04 0.03 0.05 0.05 0.06 0.08 0.09 0.11 0.11 0.10 0.16 0.19 0.25 0.31 0.35 0.40 0.46 0.45 0.44 0.42 0.45 0.49 0.56 0.56 0.48 0.38 0.32 0.29 0.30 0.31 0.31 0.38 0.33 0.26
0.11 0.13 0.20 0.23 0.18 0.18 0.30 0.19 0.15 0.09 0.13 0.13 0.11 0.15 0.19 0.17 0.38 0.36 0.25 0.24 0.32 0.38 0.55 0.58 0.53 0.58 0.59 0.53 0.45 0.41 0.49 0.57 0.65 0.62 0.54 0.40 0.33 0.30 0.28 0.29 0.31 0.33 0.25
0.12 0.15 0.18 0.20 0.27 0.18 0.35 0.30 0.24 0.17 0.22 0.22 0.20 0.25 0.53 0.35 0.45 0.29 0.18 0.12 0.19 0.30 0.31 0.36 0.37 0.41 0.41 0.42 0.48 0.40 0.38 0.43 0.48 0.47 0.40 0.31 0.28 0.27 0.27 0.23 0.24 0.25 0.23

GFSMA_prec_precacc24_102.txt.gz
Total_Precipitation_Accumulation
0.54 0.88 0.68 0.64 0.46 0.97 0.55 0.31 0.29 0.21 0.10 0.08 0.04 0.01 0.00 0.00 0.00 0.00 0.00 0.01 0.03 0.04 0.03 0.03 0.03 0.03 0.02 0.02 0.02 0.01 0.01 0.00 0.00 0.00 0.00 0.00 0.00 0.00 0.00 0.00 0.00 0.00 0.00
0.50 0.89 0.80 0.71 0.44 0.64 0.50 0.41 0.24 0.21 0.09 0.05 0.03 0.00 0.00 0.00 0.00 0.00 0.00 0.01 0.02 0.02 0.03 0.04 0.03 0.02 0.02 0.01 0.01 0.00 0.00 0.00 0.00 0.00 0.00 0.00 0.00 0.00 0.00 0.00 0.00 0.00 0.00
0.22 0.43 0.66 0.52 0.48 0.49 0.41 0.54 0.49 0.27 0.10 0.05 0.02 0.00 0.00 0.00 0.00 0.00 0.00 0.00 0.01 0.01 0.03 0.04 0.03 0.02 0.01 0.01 0.00 0.00 0.00 0.00 0.00 0.00 0.00 0.00 0.00 0.00 0.00 0.00 0.00 0.00 0.00
0.09 0.15 0.36 0.62 0.47 0.49 0.32 0.33 0.47 0.32 0.12 0.04 0.02 0.00 0.00 0.00 0.00 0.00 0.00 0.00 0.00 0.01 0.02 0.03 0.02 0.02 0.01 0.01 0.00 0.00 0.00 0.00 0.00 0.00 0.00 0.00 0.00 0.00 0.00 0.00 0.00 0.00 0.00
0.18 0.15 0.24 0.37 0.65 0.41 0.33 0.41 0.36 0.33 0.12 0.03 0.01 0.00 0.00 0.00 0.00 0.00 0.00 0.00 0.00 0.00 0.01 0.01 0.01 0.01 0.01 0.00 0.00 0.00 0.00 0.00 0.00 0.00 0.00 0.00 0.00 0.00 0.00 0.00 0.00 0.00 0.00
0.33 0.33 0.31 0.24 0.31 0.48 0.40 0.46 0.54 0.33 0.17 0.03 0.01 0.00 0.00 0.00 0.00 0.00 0.00 0.00 0.00 0.00 0.00 0.01 0.00 0.00 0.00 0.00 0.00 0.00 0.00 0.00 0.00 0.00 0.00 0.00 0.00 0.00 0.00 0.00 0.00 0.00 0.00
0.41 0.52 0.48 0.47 0.37 0.16 0.33 0.25 0.50 0.43 0.21 0.03 0.01 0.00 0.00 0.00 0.00 0.00 0.00 0.00 0.00 0.00 0.00 0.00 0.00 0.00 0.00 0.00 0.00 0.00 0.01 0.00 0.00 0.00 0.00 0.00 0.00 0.00 0.00 0.00 0.00 0.00 0.00
0.69 0.55 0.44 0.46 0.55 0.25 0.12 0.14 0.27 0.36 0.19 0.03 0.00 0.00 0.02 0.01 0.01 0.00 0.00 0.00 0.00 0.00 0.00 0.00 0.00 0.00 0.00 0.00 0.00 0.00 0.00 0.00 0.01 0.01 0.00 0.00 0.00 0.00 0.00 0.00 0.00 0.00 0.00
0.38 0.67 0.52 0.42 0.55 0.35 0.13 0.07 0.08 0.09 0.06 0.03 0.01 0.02 0.10 0.10 0.05 0.01 0.00 0.00 0.00 0.00 0.00 0.00 0.00 0.00 0.00 0.00 0.00 0.00 0.00 0.00 0.01 0.02 0.04 0.02 0.02 0.01 0.01 0.01 0.00 0.01 0.01
0.16 0.43 0.65 0.50 0.42 0.53 0.35 0.08 0.03 0.03 0.02 0.02 0.01 0.02 0.07 0.12 0.11 0.09 0.04 0.00 0.00 0.00 0.00 0.00 0.00 0.00 0.00 0.00 0.00 0.00 0.00 0.00 0.00 0.00 0.02 0.06 0.05 0.01 0.01 0.02 0.04 0.05 0.06
0.09 0.18 0.41 0.54 0.50 0.44 0.41 0.25 0.13 0.05 0.04 0.09 0.03 0.01 0.01 0.07 0.11 0.03 0.03 0.05 0.01 0.00 0.00 0.00 0.00 0.00 0.00 0.00 0.00 0.00 0.00 0.00 0.00 0.00 0.00 0.01 0.06 0.08 0.04 0.01 0.01 0.02 0.04
0.05 0.08 0.20 0.26 0.39 0.46 0.52 0.50 0.28 0.19 0.10 0.17 0.17 0.17 0.04 0.02 0.05 0.03 0.02 0.05 0.11 0.04 0.01 0.01 0.00 0.00 0.00 0.00 0.00 0.01 0.01 0.01 0.01 0.00 0.00 0.00 0.00 0.02 0.06 0.07 0.06 0.05 0.04
0.03 0.05 0.07 0.07 0.11 0.22 0.46 0.59 0.67 0.42 0.26 0.22 0.26 0.18 0.15 0.08 0.07 0.08 0.04 0.04 0.08 0.14 0.11 0.05 0.01 0.00 0.00 0.00 0.00 0.01 0.01 0.01 0.00 0.01 0.01 0.00 0.00 0.00 0.00 0.01 0.03 0.06 0.07
0.00 0.01 0.03 0.04 0.02 0.05 0.12 0.28 0.40 0.40 0.40 0.33 0.26 0.18 0.13 0.07 0.05 0.05 0.05 0.07 0.07 0.10 0.07 0.04 0.00 0.00 0.00 0.00 0.00 0.00 0.00 0.01 0.01 0.01 0.01 0.00 0.00 0.00 0.00 0.00 0.00 0.01 0.01
0.00 0.00 0.01 0.03 0.02 0.02 0.04 0.08 0.16 0.13 0.15 0.19 0.18 0.17 0.13 0.08 0.08 0.07 0.09 0.11 0.14 0.07 0.03 0.01 0.02 0.00 0.00 0.01 0.00 0.00 0.00 0.00 0.00 0.00 0.00 0.00 0.00 0.00 0.00 0.00 0.00 0.01 0.01
0.00 0.00 0.00 0.01 0.01 0.02 0.02 0.04 0.06 0.07 0.10 0.14 0.18 0.17 0.15 0.12 0.16 0.12 0.11 0.12 0.13 0.11 0.09 0.01 0.01 0.01 0.02 0.02 0.00 0.00 0.00 0.01 0.00 0.00 0.01 0.02 0.03 0.04 0.05 0.05 0.04 0.04 0.03
0.00 0.00 0.00 0.00 0.00 0.00 0.01 0.02 0.03 0.03 0.05 0.05 0.08 0.11 0.08 0.08 0.10 0.08 0.09 0.14 0.13 0.13 0.13 0.04 0.02 0.00 0.01 0.01 0.00 0.01 0.01 0.02 0.01 0.02 0.01 0.01 0.02 0.03 0.04 0.04 0.04 0.03 0.03
0.00 0.00 0.00 0.00 0.00 0.00 0.00 0.00 0.00 0.01 0.02 0.02 0.02 0.03 0.01 0.04 0.05 0.08 0.11 0.16 0.17 0.19 0.22 0.14 0.08 0.05 0.04 0.02 0.01 0.01 0.00 0.01 0.00 0.01 0.01 0.00 0.00 0.00 0.00 0.01 0.01 0.02 0.02
0.00 0.00 0.00 0.00 0.00 0.00 0.00 0.00 0.00 0.00 0.00 0.00 0.01 0.02 0.02 0.07 0.10 0.15 0.17 0.19 0.21 0.21 0.20 0.20 0.12 0.07 0.06 0.03 0.03 0.02 0.01 0.00 0.00 0.00 0.00 0.00 0.00 0.00 0.00 0.00 0.00 0.01 0.01
0.00 0.00 0.00 0.00 0.00 0.00 0.00 0.00 0.00 0.00 0.00 0.00 0.01 0.01 0.01 0.05 0.07 0.10 0.11 0.11 0.13 0.16 0.17 0.21 0.19 0.11 0.07 0.04 0.05 0.04 0.03 0.01 0.01 0.00 0.00 0.01 0.02 0.03 0.03 0.04 0.05 0.05 0.03
0.00 0.00 0.00 0.00 0.00 0.00 0.00 0.00 0.00 0.00 0.00 0.00 0.00 0.00 0.01 0.01 0.01 0.02 0.04 0.05 0.09 0.12 0.15 0.17 0.17 0.16 0.13 0.12 0.12 0.10 0.12 0.07 0.06 0.04 0.04 0.05 0.06 0.09 0.12 0.15 0.15 0.16 0.15
0.00 0.00 0.00 0.01 0.01 0.01 0.00 0.00 0.00 0.00 0.00 0.00 0.00 0.00 0.00 0.02 0.03 0.05 0.06 0.09 0.09 0.11 0.13 0.17 0.20 0.23 0.19 0.15 0.15 0.18 0.16 0.19 0.23 0.21 0.21 0.19 0.14 0.15 0.16 0.19 0.26 0.27 0.22
0.04 0.03 0.03 0.01 0.00 0.01 0.00 0.01 0.01 0.00 0.00 0.00 0.00 0.00 0.00 0.01 0.03 0.02 0.06 0.14 0.16 0.21 0.21 0.22 0.26 0.26 0.26 0.25 0.29 0.38 0.41 0.40 0.39 0.36 0.32 0.28 0.23 0.21 0.20 0.23 0.37 0.38 0.39
0.10 0.09 0.11 0.14 0.11 0.10 0.08 0.04 0.05 0.03 0.03 0.02 0.01 0.02 0.05 0.06 0.08 0.09 0.06 0.13 0.18 0.25 0.32 0.35 0.42 0.49 0.52 0.51 0.49 0.52 0.57 0.61 0.60 0.53 0.45 0.40 0.37 0.40 0.40 0.42 0.63 0.46 0.34
0.13 0.16 0.22 0.26 0.22 0.19 0.27 0.14 0.09 0.06 0.08 0.08 0.10 0.13 0.15 0.09 0.29 0.32 0.23 0.28 0.44 0.67 0.93 0.93 0.99 0.98 0.93 0.81 0.66 0.61 0.78 1.00 1.07 0.96 0.82 0.66 0.55 0.52 0.46 0.44 0.51 0.60 0.41
0.12 0.17 0.21 0.23 0.29 0.17 0.30 0.22 0.17 0.14 0.17 0.16 0.16 0.22 0.55 0.35 0.42 0.31 0.24 0.20 0.31 0.47 0.54 0.57 0.64 0.68 0.64 0.62 0.66 0.54 0.53 0.67 0.91 1.02 0.88 0.67 0.61 0.61 0.60 0.56 0.52 0.54 0.51

GFSMA_prec_precacc24_105.txt.gz
Total_Precipitation_Accumulation
0.50 0.81 0.62 0.62 0.48 1.02 0.61 0.34 0.39 0.31 0.32 0.30 0.28 0.16 0.02 0.00 0.00 0.00 0.00 0.02 0.04 0.04 0.03 0.04 0.04 0.04 0.03 0.03 0.03 0.01 0.01 0.00 0.00 0.00 0.00 0.00 0.00 0.00 0.00 0.00 0.00 0.00 0.00
0.44 0.85 0.74 0.67 0.46 0.71 0.58 0.47 0.31 0.39 0.35 0.44 0.21 0.11 0.01 0.00 0.00 0.00 0.00 0.01 0.03 0.03 0.04 0.05 0.05 0.03 0.03 0.02 0.02 0.00 0.00 0.00 0.00 0.00 0.00 0.00 0.00 0.00 0.00 0.00 0.00 0.00 0.00
0.18 0.44 0.63 0.50 0.51 0.58 0.48 0.61 0.56 0.44 0.42 0.50 0.19 0.06 0.00 0.00 0.00 0.00 0.00 0.01 0.02 0.02 0.04 0.05 0.05 0.03 0.02 0.02 0.01 0.01 0.01 0.00 0.00 0.00 0.00 0.00 0.00 0.00 0.00 0.00 0.00 0.00 0.00
0.11 0.19 0.37 0.62 0.51 0.56 0.35 0.40 0.65 0.48 0.37 0.33 0.15 0.04 0.00 0.00 0.00 0.00 0.00 0.00 0.01 0.01 0.02 0.03 0.03 0.02 0.03 0.01 0.00 0.00 0.00 0.00 0.00 0.00 0.00 0.00 0.00 0.00 0.00 0.00 0.00 0.00 0.00
0.17 0.16 0.26 0.38 0.67 0.43 0.35 0.45 0.55 0.60 0.34 0.26 0.13 0.03 0.00 0.00 0.00 0.00 0.00 0.00 0.00 0.00 0.01 0.02 0.02 0.01 0.01 0.01 0.01 0.01 0.00 0.00 0.00 0.00 0.00 0.00 0.00 0.00 0.00 0.00 0.00 0.00 0.00
0.33 0.36 0.35 0.25 0.32 0.49 0.43 0.58 0.69 0.62 0.43 0.22 0.11 0.04 0.01 0.00 0.00 0.00 0.00 0.00 0.00 0.00 0.00 0.01 0.01 0.00 0.01 0.01 0.01 0.00 0.01 0.00 0.00 0.00 0.00 0.00 0.00 0.00 0.00 0.00 0.00 0.00 0.00
0.42 0.57 0.53 0.48 0.37 0.17 0.37 0.46 0.80 0.77 0.52 0.26 0.11 0.06 0.05 0.02 0.00 0.00 0.00 0.00 0.00 0.00 0.00 0.01 0.00 0.00 0.00 0.00 0.01 0.00 0.01 0.00 0.00 0.00 0.00 0.00 0.00 0.00 0.00 0.00 0.00 0.00 0.00
0.70 0.59 0.46 0.47 0.56 0.26 0.15 0.28 0.56 0.86 0.60 0.20 0.05 0.01 0.01 0.01 0.03 0.01 0.00 0.00 0.00 0.00 0.00 0.00 0.00 0.00 0.00 0.00 0.00 0.00 0.00 0.01 0.01 0.00 0.00 0.00 0.00 0.00 0.00 0.00 0.00 0.00 0.00
0.41 0.70 0.54 0.42 0.55 0.36 0.14 0.09 0.20 0.49 0.36 0.15 0.03 0.02 0.04 0.04 0.04 0.02 0.00 0.00 0.00 0.00 0.00 0.00 0.00 0.00 0.00 0.00 0.00 0.00 0.00 0.00 0.01 0.03 0.03 0.02 0.01 0.00 0.00 0.00 0.00 0.00 0.01
0.17 0.45 0.67 0.52 0.43 0.55 0.37 0.10 0.05 0.21 0.26 0.08 0.06 0.06 0.06 0.09 0.09 0.03 0.01 0.00 0.00 0.00 0.00 0.00 0.00 0.00 0.00 0.00 0.00 0.00 0.00 0.00 0.00 0.00 0.03 0.06 0.05 0.01 0.01 0.01 0.01 0.02 0.03
0.10 0.20 0.43 0.56 0.52 0.46 0.45 0.31 0.14 0.08 0.13 0.10 0.05 0.03 0.04 0.09 0.10 0.03 0.02 0.02 0.01 0.00 0.00 0.00 0.00 0.00 0.00 0.00 0.00 0.00 0.00 0.00 0.00 0.00 0.00 0.01 0.06 0.09 0.04 0.01 0.01 0.01 0.01
0.05 0.09 0.23 0.30 0.42 0.48 0.56 0.52 0.25 0.16 0.08 0.11 0.11 0.09 0.02 0.03 0.05 0.03 0.01 0.02 0.04 0.01 0.00 0.00 0.00 0.00 0.00 0.00 0.00 0.01 0.01 0.01 0.01 0.00 0.00 0.00 0.00 0.03 0.08 0.09 0.08 0.06 0.05
0.03 0.05 0.09 0.10 0.12 0.24 0.47 0.60 0.71 0.45 0.21 0.15 0.14 0.11 0.08 0.05 0.06 0.05 0.01 0.04 0.07 0.07 0.03 0.01 0.00 0.00 0.00 0.00 0.00 0.01 0.01 0.01 0.00 0.01 0.01 0.00 0.00 0.00 0.00 0.01 0.04 0.08 0.10
0.00 0.01 0.03 0.07 0.04 0.06 0.13 0.25 0.38 0.45 0.48 0.35 0.24 0.17 0.11 0.06 0.04 0.04 0.04 0.07 0.06 0.05 0.05 0.03 0.00 0.00 0.00 0.00 0.00 0.00 0.00 0.01 0.01 0.01 0.01 0.00 0.00 0.00 0.00 0.00 0.00 0.01 0.01
0.00 0.00 0.01 0.04 0.04 0.02 0.04 0.06 0.13 0.16 0.29 0.37 0.27 0.19 0.13 0.09 0.07 0.07 0.08 0.12 0.12 0.05 0.02 0.01 0.02 0.00 0.00 0.01 0.00 0.00 0.00 0.00 0.00 0.00 0.00 0.00 0.00 0.00 0.00 0.00 0.00 0.01 0.01
0.00 0.00 0.00 0.02 0.03 0.02 0.02 0.03 0.04 0.06 0.09 0.16 0.20 0.20 0.17 0.16 0.20 0.18 0.16 0.12 0.12 0.08 0.05 0.00 0.00 0.01 0.02 0.02 0.01 0.01 0.00 0.01 0.00 0.00 0.01 0.02 0.03 0.04 0.05 0.05 0.04 0.04 0.03
0.00 0.00 0.00 0.01 0.00 0.00 0.00 0.02 0.02 0.03 0.05 0.05 0.07 0.12 0.15 0.20 0.20 0.18 0.15 0.13 0.09 0.08 0.08 0.01 0.01 0.00 0.02 0.05 0.02 0.01 0.01 0.02 0.01 0.02 0.01 0.01 0.02 0.03 0.04 0.04 0.04 0.03 0.03
0.00 0.00 0.00 0.00 0.00 0.00 0.00 0.00 0.01 0.01 0.02 0.02 0.02 0.03 0.03 0.08 0.11 0.11 0.10 0.07 0.04 0.08 0.13 0.09 0.07 0.05 0.04 0.03 0.04 0.05 0.03 0.02 0.00 0.01 0.01 0.00 0.00 0.00 0.00 0.01 0.01 0.02 0.02
0.00 0.00 0.00 0.00 0.00 0.00 0.00 0.00 0.00 0.00 0.00 0.00 0.01 0.02 0.01 0.04 0.02 0.02 0.03 0.03 0.03 0.07 0.13 0.16 0.11 0.08 0.07 0.03 0.05 0.05 0.06 0.05 0.02 0.00 0.00 0.00 0.00 0.00 0.00 0.00 0.00 0.01 0.01
0.00 0.00 0.00 0.00 0.00 0.00 0.00 0.00 0.00 0.00 0.00 0.00 0.01 0.01 0.01 0.02 0.02 0.02 0.03 0.03 0.06 0.08 0.10 0.14 0.16 0.10 0.07 0.05 0.07 0.06 0.05 0.03 0.03 0.01 0.01 0.01 0.02 0.03 0.03 0.04 0.05 0.05 0.03
0.00 0.00 0.00 0.01 0.00 0.00 0.00 0.00 0.00 0.00 0.00 0.00 0.00 0.00 0.00 0.00 0.01 0.02 0.03 0.04 0.07 0.08 0.08 0.09 0.11 0.12 0.09 0.11 0.12 0.10 0.12 0.08 0.07 0.06 0.07 0.08 0.09 0.12 0.14 0.16 0.16 0.16 0.15
0.00 0.00 0.00 0.01 0.02 0.01 0.00 0.00 0.00 0.00 0.00 0.00 0.00 0.00 0.00 0.00 0.01 0.01 0.02 0.03 0.06 0.07 0.07 0.08 0.13 0.20 0.17 0.15 0.16 0.20 0.19 0.23 0.26 0.23 0.26 0.24 0.16 0.18 0.17 0.20 0.28 0.28 0.23
0.04 0.03 0.03 0.01 0.01 0.01 0.01 0.01 0.00 0.00 0.01 0.01 0.01 0.00 0.01 0.00 0.00 0.00 0.02 0.07 0.10 0.15 0.17 0.20 0.23 0.22 0.26 0.26 0.31 0.41 0.43 0.42 0.42 0.38 0.34 0.31 0.27 0.26 0.27 0.31 0.47 0.42 0.42
0.10 0.08 0.11 0.14 0.11 0.10 0.08 0.04 0.05 0.03 0.03 0.04 0.05 0.03 0.04 0.04 0.09 0.09 0.04 0.11 0.18 0.23 0.25 0.27 0.36 0.46 0.53 0.53 0.50 0.57 0.63 0.66 0.65 0.59 0.51 0.50 0.46 0.51 0.50 0.51 0.79 0.56 0.40
0.16 0.17 0.22 0.27 0.23 0.19 0.28 0.13 0.08 0.06 0.09 0.10 0.10 0.12 0.11 0.08 0.26 0.30 0.21 0.23 0.42 0.71 0.99 1.00 1.16 1.17 1.11 0.96 0.80 0.76 0.97 1.21 1.27 1.16 0.99 0.80 0.68 0.64 0.60 0.57 0.63 0.72 0.48
0.23 0.22 0.22 0.24 0.31 0.17 0.29 0.19 0.15 0.13 0.17 0.16 0.15 0.20 0.51 0.32 0.33 0.25 0.19 0.16 0.25 0.39 0.50 0.57 0.68 0.74 0.72 0.68 0.73 0.60 0.62 0.79 1.04 1.14 0.97 0.74 0.69 0.70 0.70 0.64 0.57 0.57 0.53